[[{"header":{"parameterUnit":"m.s-1","parameterCategory":1,"la1":30.2991,"la2":30.254,"lo1":-89.0895,"lo2":-89.0444,"dy":0.0017,"dx":0.0017,"nx":28,"ny":28,"refTime":"2024-05-23T09:00:00:Z","depth":0,"parameterNumber":2,"parameterNumberName":"U-component_of_WINDS"},"data":[0,0,0,0,0,0,0,0,0,0,0,0,0,0,0,0,0,0,0,0,0,0,0,0,0,0,0,0,0,0,0,0,0,0,0,0,0,0,0,0,0,0,0,0,0,0,0,0,0,0,0,0,0,0,0,0,0,0,-1.2555,-1.2556,0,-1.2578,-1.2578,-1.2579,-1.258,-1.258,-1.258,-1.2579,-1.2602,-1.2602,-1.2603,0,0,0,0,0,0,0,0,0,0,0,0,0,-1.2513,-1.2514,-1.2555,-1.2556,-1.2556,-1.2578,-1.2578,-1.2579,-1.258,-1.258,-1.258,-1.2579,-1.2601,-1.2602,-1.2603,0,0,0,0,0,0,0,0,0,0,0,0,0,-1.2533,-1.2514,-1.2555,-1.2559,-1.256,-1.2578,-1.2578,-1.2579,-1.258,-1.258,-1.258,-1.2579,-1.2601,-1.2602,-1.2603,-1.2619,0,0,-1.2607,-1.2608,0,0,0,0,0,0,0,0,-1.2532,-1.2535,-1.2558,-1.2559,-1.256,-1.2576,-1.2572,-1.2592,-1.258,-1.2573,-1.2579,-1.2579,-1.2593,-1.2595,-1.26,-1.262,-1.2621,-1.2607,-1.2608,-1.2609,-1.2609,0,0,0,0,0,0,0,-1.2531,-1.2534,-1.2564,-1.2559,-1.256,-1.256,-1.2562,-1.2576,-1.2585,-1.2573,-1.2573,-1.2576,-1.2594,-1.2599,-1.2601,-1.2621,-1.2607,-1.2608,-1.2609,-1.261,-1.2655,-1.2655,0,0,0,0,0,0,-1.2528,-1.2533,-1.2564,-1.2565,-1.2545,-1.2561,-1.2564,-1.2571,-1.2585,-1.2586,-1.2576,-1.2576,-1.2597,-1.2599,-1.2601,-1.2621,-1.2609,-1.261,-1.261,-1.2655,-1.2655,-1.2656,0,0,0,0,0,0,-1.2528,-1.2531,-1.2563,-1.2549,-1.2553,-1.2562,-1.257,-1.2572,-1.2577,-1.2587,-1.2589,-1.258,-1.2597,-1.26,-1.2615,-1.2621,-1.261,-1.2611,-1.2654,-1.2655,-1.2655,-1.2659,0,0,0,0,0,0,-1.2526,-1.2531,-1.2537,-1.2549,-1.2554,-1.2575,-1.2571,-1.2573,-1.258,-1.2579,-1.2591,-1.2593,-1.2597,-1.2613,-1.2616,-1.2623,-1.2612,-1.2653,-1.2654,-1.2655,-1.2658,-1.266,-1.2661,0,0,0,0,0,-1.2525,-1.2536,-1.2537,-1.2541,-1.2561,-1.2576,-1.2578,-1.2583,-1.258,-1.2586,-1.2593,-1.2592,-1.262,-1.2614,-1.2618,-1.2625,-1.2653,-1.2654,-1.2655,-1.2657,-1.2659,-1.2661,0,0,0,0,0,0,-1.2523,-1.2538,-1.2539,-1.2554,-1.2564,-1.2576,-1.2584,-1.2585,-1.2595,-1.2594,-1.26,-1.2603,-1.2617,-1.2623,-1.2616,-1.2641,-1.2636,-1.2638,-1.2637,-1.2639,-1.264,-1.2638,-1.2613,0,0,0,0,0,-1.2525,-1.2536,-1.2548,-1.2561,-1.2566,-1.2574,-1.258,-1.2584,-1.2594,-1.2597,-1.2605,-1.2614,-1.2625,-1.2632,-1.2643,-1.2659,-1.2662,-1.2666,-1.2668,-1.2669,-1.267,-1.268,-1.2682,-1.2659,-1.2659,-1.2659,0,0,-1.2528,-1.2538,-1.2544,-1.2561,-1.2569,-1.258,-1.2577,-1.2589,-1.2597,-1.2599,-1.2614,-1.262,-1.2631,-1.2647,-1.2654,-1.2652,-1.2677,-1.267,-1.2671,-1.2671,-1.2681,-1.2683,-1.2685,-1.266,-1.266,-1.266,0,0,-1.254,-1.2548,-1.256,-1.2568,-1.2581,-1.2586,-1.2589,-1.2602,-1.2606,-1.2621,-1.2623,-1.2633,-1.2652,-1.266,-1.2666,-1.2683,-1.2683,-1.2686,-1.2693,-1.2702,-1.2704,-1.2705,-1.2712,-1.2714,-1.2688,-1.2688,-1.2688,0,-1.2542,-1.256,-1.2566,-1.2578,-1.2586,-1.2589,-1.2601,-1.2609,-1.2623,-1.2629,-1.2626,-1.2651,-1.2658,-1.2676,-1.268,-1.2686,-1.2689,-1.2684,-1.2703,-1.2705,-1.2706,-1.2712,-1.2715,-1.2688,-1.2688,-1.2688,-1.2688,0,-1.2562,-1.2574,-1.2583,-1.2598,-1.2606,-1.2618,-1.2627,-1.2635,-1.2637,-1.2643,-1.2659,-1.2669,-1.2682,-1.2686,-1.2689,-1.2705,-1.2704,-1.2702,-1.2697,-1.2709,-1.2714,-1.2717,-1.2688,-1.2688,-1.2688,-1.2688,0,0,-1.2572,-1.2592,-1.2595,-1.2602,-1.2617,-1.2626,-1.2639,-1.2653,-1.2659,-1.267,-1.2681,-1.2697,-1.2697,-1.2704,-1.2708,-1.2716,-1.2729,-1.2714,-1.2714,-1.2716,-1.2748,-1.2749,-1.2752,-1.273,-1.273,-1.2731,-1.2747,0,-1.2586,-1.2609,-1.2615,-1.2635,-1.2646,-1.265,-1.2661,-1.2672,-1.2678,-1.2689,-1.2696,-1.2707,-1.2705,-1.271,-1.2719,-1.2726,-1.2736,-1.2725,-1.274,-1.274,-1.2737,-1.2754,-1.2755,-1.277,-1.275,-1.275,-1.275,0,-1.2604,-1.2616,-1.2637,-1.2651,-1.2656,-1.2666,-1.2679,-1.269,-1.2702,-1.2706,-1.2715,-1.2718,-1.2732,-1.2727,-1.2746,-1.2738,-1.2745,-1.275,-1.2751,-1.2752,-1.2746,-1.2756,-1.2775,-1.2777,-1.2754,-1.2754,-1.2753,0,-1.261,-1.2631,-1.2646,-1.2652,-1.2669,-1.2676,-1.2683,-1.2695,-1.2703,-1.2715,-1.272,-1.2734,-1.2741,-1.2751,-1.2758,-1.2753,-1.2776,-1.2771,-1.278,-1.278,-1.2784,-1.2783,-1.2804,-1.2789,-1.2789,-1.2789,-1.2789,0,-1.2624,-1.2636,-1.2649,-1.2658,-1.2673,-1.2681,-1.2695,-1.2702,-1.2713,-1.2724,-1.2728,-1.2738,-1.2747,-1.2758,-1.2764,-1.2779,-1.2782,-1.2786,-1.2787,-1.2785,-1.2785,-1.2789,-1.2788,-1.2789,-1.2789,-1.2789,-1.2789,0,-1.2632,-1.2641,-1.2658,-1.2673,-1.2677,-1.2687,-1.27,-1.271,-1.2717,-1.2731,-1.2735,-1.2746,-1.2759,-1.2768,-1.2785,-1.2788,-1.2805,-1.2806,-1.2801,-1.2802,-1.281,-1.2809,-1.2834,-1.2838,-1.282,-1.282,-1.282,0,-1.264,-1.265,-1.2666,-1.2675,-1.2682,-1.2695,-1.2704,-1.2712,-1.2721,-1.2736,-1.2744,-1.2758,-1.277,-1.2792,-1.2801,-1.2815,-1.2816,-1.2824,-1.2818,-1.2816,-1.2816,-1.2815,-1.2816,-1.2824,-1.2825,-1.2825,-1.2825,0,-1.2654,-1.2658,-1.2671,-1.2685,-1.2696,-1.2707,-1.2719,-1.2725,-1.2736,-1.2745,-1.276,-1.2769,-1.2788,-1.2802,-1.2816,-1.2824,-1.2826,-1.2827,-1.2829,-1.2827,-1.2824,-1.2826,-1.2804,-1.2826,-1.2826,-1.2826,-1.2826,-1.2826,-1.2662,-1.2671,-1.2685,-1.2699,-1.2709,-1.272,-1.273,-1.2739,-1.2751,-1.2767,-1.2772,-1.2787,-1.28,-1.282,-1.2828,-1.284,-1.2838,-1.2842,-1.2843,-1.2844,-1.2844,-1.2823,-1.2842,-1.2842,-1.2842,-1.2842,-1.2842,0,-1.2676,-1.2685,-1.2698,-1.2715,-1.2726,-1.2729,-1.2742,-1.2751,-1.2765,-1.2777,-1.2789,-1.2806,-1.282,-1.2831,-1.2846,-1.2853,-1.2855,-1.2857,-1.2856,-1.2858,-1.2844,-1.2841,-1.2856,-1.2856,-1.2856,-1.2856,-1.2856,-1.2856,-1.2685,-1.2701,-1.2707,-1.2729,-1.2738,-1.2753,-1.2761,-1.2771,-1.2781,-1.28,-1.2812,-1.282,-1.2832,-1.2847,-1.286,-1.2863,-1.2868,-1.287,-1.2873,-1.286,-1.2859,-1.2858,-1.2854,-1.2871,-1.2871,-1.2886,-1.2886,-1.2886]},{"header":{"parameterUnit":"m.s-1","parameterCategory":1,"la1":30.2991,"la2":30.254,"lo1":-89.0895,"lo2":-89.0444,"dy":0.0017,"dx":0.0017,"nx":28,"ny":28,"refTime":"2024-05-23T09:00:00:Z","depth":0,"parameterNumber":3,"parameterNumberName":"V-component_of_WINDS"},"data":[0,0,0,0,0,0,0,0,0,0,0,0,0,0,0,0,0,0,0,0,0,0,0,0,0,0,0,0,0,0,0,0,0,0,0,0,0,0,0,0,0,0,0,0,0,0,0,0,0,0,0,0,0,0,0,0,0,0,4.7072,4.7072,0,4.7108,4.7108,4.7108,4.7048,4.7046,4.7044,4.7042,4.7074,4.7077,4.708,0,0,0,0,0,0,0,0,0,0,0,0,0,4.6946,4.6949,4.7072,4.7072,4.7073,4.7108,4.7108,4.7108,4.7048,4.7045,4.7043,4.7041,4.7073,4.7076,4.708,0,0,0,0,0,0,0,0,0,0,0,0,0,4.6993,4.695,4.7072,4.7047,4.7045,4.7107,4.7108,4.7109,4.7049,4.7045,4.7042,4.7039,4.7072,4.7076,4.708,4.7167,0,0,4.7093,4.7095,0,0,0,0,0,0,0,0,4.6991,4.6998,4.705,4.7049,4.7047,4.707,4.7076,4.7128,4.7049,4.7047,4.7042,4.7038,4.7075,4.7079,4.7092,4.7169,4.717,4.7093,4.7096,4.7098,4.7099,0,0,0,0,0,0,0,4.6988,4.6996,4.7086,4.7051,4.7049,4.7032,4.7036,4.7085,4.7078,4.7047,4.7043,4.7048,4.7073,4.7088,4.7092,4.7171,4.7093,4.7097,4.71,4.7101,4.732,4.7323,0,0,0,0,0,0,4.6988,4.6994,4.7085,4.7087,4.7011,4.7037,4.7041,4.7066,4.7077,4.7076,4.7051,4.7045,4.7083,4.7088,4.7093,4.7195,4.7098,4.7102,4.7104,4.7317,4.7321,4.7325,0,0,0,0,0,0,4.6986,4.6997,4.7083,4.7039,4.7049,4.7043,4.7071,4.7068,4.7083,4.708,4.7078,4.7067,4.708,4.7087,4.715,4.7196,4.7103,4.7107,4.7313,4.7318,4.7323,4.7401,0,0,0,0,0,0,4.6982,4.6996,4.703,4.7041,4.7052,4.714,4.7074,4.7071,4.709,4.7084,4.7095,4.7094,4.7078,4.7144,4.7154,4.72,4.711,4.7309,4.7315,4.7321,4.7394,4.7408,4.742,0,0,0,0,0,4.6978,4.705,4.7032,4.7044,4.7094,4.7143,4.7149,4.7131,4.7095,4.7128,4.7126,4.7093,4.7189,4.7151,4.7161,4.7209,4.7306,4.7313,4.7321,4.7389,4.7405,4.742,0,0,0,0,0,0,4.7044,4.7051,4.7031,4.7109,4.7126,4.7133,4.7175,4.715,4.7177,4.7169,4.7144,4.7147,4.7214,4.7218,4.7175,4.7294,4.7241,4.7251,4.7289,4.7305,4.7318,4.7315,4.7114,0,0,0,0,0,4.7068,4.7109,4.7112,4.718,4.719,4.7181,4.7202,4.7187,4.7203,4.7209,4.7211,4.7227,4.7261,4.7283,4.7314,4.7395,4.7396,4.7433,4.7446,4.7457,4.7465,4.7507,4.7524,4.7349,4.7349,4.7349,0,0,4.7117,4.7126,4.7153,4.7194,4.7205,4.7246,4.7187,4.7233,4.7263,4.7215,4.7274,4.7277,4.7293,4.7365,4.7396,4.737,4.7514,4.7466,4.7475,4.7477,4.7517,4.7533,4.7548,4.7354,4.7353,4.7352,0,0,4.7228,4.7239,4.7297,4.731,4.7329,4.7322,4.7336,4.7347,4.7347,4.7407,4.7371,4.7406,4.7464,4.7477,4.7491,4.7607,4.7577,4.7617,4.7684,4.7725,4.7739,4.7751,4.7792,4.7806,4.7626,4.7626,4.7626,0,4.7286,4.7348,4.7329,4.7378,4.7397,4.7357,4.7415,4.7428,4.7455,4.7468,4.7438,4.7511,4.7518,4.7592,4.7621,4.7634,4.7648,4.7615,4.7739,4.7751,4.7762,4.78,4.7815,4.7631,4.763,4.763,4.7629,0,4.7418,4.7462,4.7506,4.7535,4.7559,4.7612,4.76,4.7626,4.7609,4.7605,4.7665,4.7673,4.7705,4.7721,4.7705,4.7793,4.7776,4.7743,4.7689,4.7783,4.7819,4.7833,4.7638,4.7636,4.7635,4.7633,0,0,4.7571,4.7589,4.7606,4.7618,4.7636,4.7668,4.7719,4.7751,4.7774,4.7794,4.7834,4.7885,4.7855,4.7871,4.7855,4.7892,4.7982,4.7854,4.7854,4.7877,4.8079,4.8103,4.812,4.7963,4.7966,4.7968,4.8077,0,4.768,4.7769,4.7754,4.784,4.7879,4.7842,4.7886,4.7901,4.7899,4.7931,4.7928,4.7964,4.7922,4.7932,4.7966,4.7964,4.8022,4.7956,4.8,4.8002,4.7996,4.8139,4.8164,4.8267,4.8091,4.8093,4.8095,0,4.7819,4.7846,4.7937,4.7948,4.7964,4.8004,4.8032,4.8064,4.8079,4.8075,4.8094,4.8071,4.812,4.8067,4.8133,4.8089,4.8105,4.8107,4.8111,4.8113,4.8053,4.8144,4.8299,4.8314,4.8117,4.8115,4.8114,0,4.792,4.7979,4.804,4.8052,4.8067,4.8096,4.8104,4.8117,4.8137,4.8161,4.8174,4.8203,4.8218,4.8241,4.8226,4.8189,4.8295,4.8241,4.8292,4.8292,4.8315,4.8314,4.8474,4.8328,4.8328,4.8327,4.8327,0,4.8044,4.81,4.8086,4.8124,4.8185,4.8167,4.8228,4.8231,4.8243,4.8279,4.8249,4.8283,4.8262,4.8295,4.8284,4.834,4.8347,4.8345,4.8341,4.8347,4.8347,4.8357,4.8349,4.8331,4.8331,4.833,4.8329,0,4.8167,4.816,4.8224,4.8234,4.8237,4.8282,4.829,4.8324,4.832,4.8367,4.8376,4.837,4.8407,4.8395,4.8434,4.8426,4.8498,4.8485,4.8493,4.8489,4.8541,4.8536,4.8712,4.8734,4.8575,4.8577,4.8578,0,4.8245,4.8288,4.8303,4.8326,4.8336,4.8373,4.8394,4.8377,4.84,4.8421,4.8453,4.8487,4.8514,4.8574,4.8572,4.8601,4.8589,4.8648,4.8593,4.8597,4.8588,4.8586,4.8589,4.8659,4.8661,4.8662,4.8664,0,4.8385,4.838,4.8412,4.8443,4.847,4.8493,4.8513,4.8533,4.8518,4.8545,4.8583,4.8603,4.8644,4.8678,4.8705,4.8711,4.8684,4.8681,4.8695,4.8701,4.8703,4.8702,4.8522,4.8677,4.8676,4.8675,4.8674,4.8674,4.8488,4.8524,4.854,4.8577,4.859,4.861,4.8643,4.8644,4.8676,4.8708,4.8696,4.874,4.8753,4.8787,4.8797,4.8829,4.8806,4.8826,4.883,4.8835,4.8842,4.8699,4.8834,4.8834,4.8834,4.8833,4.8833,0,4.8625,4.8634,4.8668,4.8698,4.8727,4.8702,4.8723,4.8748,4.8787,4.8803,4.883,4.8873,4.8906,4.8907,4.8937,4.8963,4.8952,4.8972,4.8969,4.8971,4.8861,4.8846,4.8981,4.8981,4.8981,4.898,4.898,4.898,4.87,4.876,4.8757,4.8822,4.883,4.8874,4.8888,4.8905,4.8918,4.8968,4.8996,4.8997,4.9006,4.9037,4.9066,4.9065,4.9077,4.9102,4.9096,4.8993,4.8979,4.8965,4.895,4.9105,4.9105,4.9203,4.9204,4.9205]}]]